www.pogodaiklimat.ru

Погода и климат >> Архив погоды >> Сенегал >> Tambacounda


ПОГОДА в Tambacounda

  • Прогноз погоды в Tambacounda
  • Монитор погоды в Tambacounda
  • Климат города

АРХИВ ПОГОДЫ в Tambacounda

Время (UTC), дата Ветер
(напр.,м/с)
 
Видим.   Явления Облачность Т
(С)
Тd
(С)
f
(%)
Тe
(С)
Тes
(С)
Комфортность P
(гПа)
Po
(гПа)
Тmin
(С)
Tmax
(С)
R
(мм)
R24
(мм)
S
(см)
18 10.12 С 2 10 км ясно +34.5 +3.6 14 +32 +32 жарко 1012.1 1006.4 +36.5
21 10.12 В 1 10 км 3/0
[Ci sp]
+24.3 +7.8 35 +25 +25 комфорт 1014.3 1008.6
00 11.12 СВ 1 10 км 3/0
[Ci sp]
+22.2 +7.5 39 +23 +23 комфорт 1014.4 1008.7
03 11.12 СЗ 2 10 км ясно +19.0 +7.8 48 +20 +20 1013.5 1007.8
06 11.12 С 1 10 км ясно +18.0 +4.2 40 +19 +19 1013.1 1007.4 +17.8
09 11.12 С 2 10 км ясно +22.0 +2.7 28 +22 +25 комфорт 1014.9 1009.1
12 11.12 СВ 5 10 км 5/0
[Ci sp]
+34.2 +1.2 12 +31 +37 жарко 1014.2 1008.5
15 11.12 СЗ 1 10 км 4/0
[Ci sp]
+36.2 +6.4 16 +34 +44 очень
жарко
1011.1 1005.5
18 11.12 С 1 10 км 4/0
[Ci sp]
+34.4 +6.6 18 +32 +33 жарко 1011.1 1005.4 +36.5
21 11.12 СВ 1 10 км ясно +24.8 +7.3 33 +25 +25 комфорт 1012.8 1007.0
00 12.12 ЮЗ 2 10 км ясно +23.0 +4.2 29 +23 +23 комфорт 1012.9 1007.2
03 12.12 С 1 10 км ясно +19.0 +6.2 43 +21 +21 комфорт 1012.0 1006.3
06 12.12 С 2 10 км ясно +17.9 +5.1 43 +18 +18 1012.4 1006.7 +17.0
09 12.12 С 1 10 км 8/0
[Ac trans Ci fib]
+23.0 -0.3 21 +22 +25 комфорт 1013.7 1007.9
15 12.12 СВ 2 10 км 6/0
[Ci sp]
+36.5 +5.0 14 +34 +42 очень
жарко
1009.9 1004.2
18 12.12 В 1 10 км 8/0
[Ac lent Ci sp]
+35.2 +8.2 19 +33 +34 жарко 1010.4 1014.7 +36.5
21 12.12 Ю 2 10 км 6/0
[Ac lent Ci sp]
+27.4 +9.3 32 +28 +28 жарко 1012.0 1006.3
00 13.12 СВ 1 10 км ясно +23.8 +8.6 38 +24 +24 комфорт 1013.2 1007.6
06 13.12 СЗ 2 10 км ясно +20.7 +7.4 42 +22 +22 комфорт 1012.5 1006.8 +20.5
09 13.12 СВ 3 10 км 5/0
[Ac trans Ci fib]
+23.4 +4.6 29 +23 +25 комфорт 1014.6 1008.8
12 13.12 СВ 4 10 км 6/0
[Ac trans Ci fib]
+32.6 +9.1 23 +31 +38 жарко 1014.1 1008.4
15 13.12 В 4 10 км 8/0
[Ci sp]
+33.5 +13.0 29 +34 +40 очень
жарко
1011.5 1005.9
18 13.12 ЮВ 2 10 км 6/0
[Ac trans Ci sp]
+33.6 +14.0 31 +35 +35 душно 1011.9 1006.2 +35.7
21 13.12 штиль 0 10 км 6/0
[Ac trans Ci sp]
+27.4 +13.1 41 +29 +29 жарко 1013.5 1007.8
00 14.12 СВ 2 10 км 3/0
[Ci sp]
+25.6 +13.4 47 +28 +28 жарко 1014.7 1009.0
03 14.12 СВ 3 10 км 6/0
[Ci sp]
+25.6 +7.2 31 +26 +26 жарко 1014.1 1008.4
06 14.12 СВ 5 10 км 9/0
[Ac As]
+27.0 +0.5 18 +25 +25 комфорт 1014.1 1008.5 +24.2
09 14.12 СВ 4 10 км 9/0
[Ac As]
+26.8 +1.2 19 +25 +26 комфорт 1015.9 1010.1
12 14.12 СВ 6 10 км 8/0
[Ac cast]
+33.6 +2.2 14 +31 +33 жарко 1015.6 1010.0
15 14.12 СВ 6 10 км 8/0
[Ac As]
+36.6 +3.7 13 +34 +35 очень
жарко
1012.7 1007.1
18 14.12 СВ 3 10 км 8/0
[Ac As]
+33.6 +5.9 18 +31 +32 жарко 1013.4 1007.8 +36.6
21 14.12 СВ 2 10 км 6/0
[Ac As]
+29.6 +5.9 22 +28 +28 жарко 1015.1 1009.4
00 15.12 С 2 10 км 9/0
[Ac cast]
+27.2 +4.5 23 +26 +26 жарко 1016.1 1010.4
03 15.12 С 3 10 км 6/0
[Ac trans Ci sp]
+26.0 +1.4 20 +24 +24 комфорт 1015.4 1009.8
06 15.12 0 н/о 1016.0 1010.3 +24.7
09 15.12 С 4 10 км 6/0
[Ac trans]
+25.6 +1.3 20 +24 +25 комфорт 1017.3 1011.6
12 15.12 СВ 6 10 км 4/0
[Ac trans]
+33.5 +2.3 14 +30 +34 жарко 1017.1 1011.4
15 15.12 С 5 10 км 4/0
[Ac trans]
+36.3 +2.5 12 +33 +37 жарко 1015.0 1009.3
18 15.12 С 5 10 км 6/0
[Ac cast]
+33.5 +0.2 12 +30 +30 жарко 1014.9 1009.3 +36.7
21 15.12 С 3 10 км 4/0
[Ac trans]
+27.8 +1.5 18 +26 +26 жарко 1017.2 1011.5
00 16.12 С 3 10 км 4/0
[Ac trans]
+25.5 +4.2 25 +25 +25 комфорт 1017.4 1011.7
03 16.12 С 2 10 км 4/0
[Ac trans]
+21.8 +3.3 30 +22 +22 комфорт 1016.2 1010.5
06 16.12 С 2 10 км 4/0
[Ac trans]
+20.2 +2.1 30 +21 +21 комфорт 1015.7 1010.0 +19.5
09 16.12 СВ 5 10 км ясно +24.1 +1.1 22 +23 +25 комфорт 1017.4 1011.6
12 16.12 СВ 6 10 км 3/0
[Ac trans]
+32.7 +0.2 13 +30 +34 жарко 1016.3 1010.7
15 16.12 СВ 6 10 км 3/0
[Ac cast]
+36.0 -0.5 10 +32 +35 жарко 1013.2 1007.5
21 16.12 С 2 10 км ясно +26.0 +3.6 24 +25 +25 комфорт 1014.7 1008.8
00 17.12 С 3 10 км ясно +26.0 +1.1 20 +24 +24 комфорт 1014.9 1009.2
03 17.12 С 2 10 км ясно +21.0 +1.6 28 +22 +22 комфорт 1014.6 1008.9
06 17.12 СВ 3 10 км ясно +20.2 -1.2 24 +20 +20 1014.6 1008.9 +20.0
09 17.12 СВ 5 10 км ясно +23.7 -0.9 20 +22 +24 комфорт 1015.9 1010.1
12 17.12 СВ 4 10 км 1/0
[Ac As]
+33.5 +4.2 16 +31 +39 жарко 1014.8 1009.1
15 17.12 С 1 10 км ясно +36.6 +5.6 15 +34 +46 очень
жарко
1011.7 1006.0

 

Местоположение метеостанции Tambacounda (Сенегал): широта 13.77 долгота -13.68 высота над уровнем моря 50 м.

В архиве по умолчанию представлена погода в Tambacounda за последнюю неделю. Архивные данные за месяц целиком и за предыдущие месяцы, начиная с января 2011 года, Вы можете получить, выбрав интересующий диапазон дат из раскрывающегося списка и нажав кнопку "Ввод!".


*Определитесь, кто Вы:
робот инопланетянин человек

Внимание! Время в таблицах - всемирное. Для получения местного времени необходимо прибавить поправку, которая в Tambacounda равна 0 ч.

Смотрите также архив погоды в соседних городах и на ближайших метеорологических станциях:

Погода в Fatoto (Гамбия) (33 км)
Погода в Basse (Гамбия) (85 км)
Погода в Georgetown (Гамбия) (121 км)
Погода в Koundara (Гвинея) (135 км)
Погода в Kolda (Сенегал) (170 км)
Погода в Kauur (Гамбия) (177 км)
Погода в Jenoi (Гамбия) (207 км)
Погода в Kedougou (Сенегал) (208 км)
Погода в Bafata (Гвинея-Биссау) (208 км)
Погода в Matam (Сенегал) (214 км)

Пояснения к столбцам:

Ветер - указаны скорость ветра в м/с - средняя за 10 мин, порывы в срок и между сроками (в фигурных скобках) и направление, откуда дует ветер: С - северный, СВ - северо-восточный, В - восточный, ЮВ - юго-восточный, Ю - южный, ЮЗ - юго-западный, З - западный, СЗ - северо-западный.
Видимость - горизонтальная дальность видимости в метрах или километрах. При видимости от 1 до 10 км при отсутствии осадков обычно наблюдается дымка, при ухудшении видимости до 1 км и менее - туман. В сухую погоду видимость может ухудшаться дымом, пылью или мглою.
Явления - указаны атмосферные явления, наблюдавшиеся в срок или в последний час перед сроком; фигурными скобками обозначены явления, наблюдавшиеся между сроками (за 1-3 часа до срока); квадратными скобками обозначены град или гололедные отложения с указанием их диаметра в мм.
Облачность - указаны через наклонную черту общая и нижняя облачность в баллах и высота нижней границы облаков в метрах; квадратными скобками обозначены формы облаков: Ci - перистые, Cs - перисто-слоистые, Cc - перисто-кучевые, Ac - высококучевые, As - высокослоистые, Sc - слоисто-кучевые, Ns - слоисто-дождевые, Cu - кучевые, Cb - кучево-дождевые. Подробнее классификацию облаков см. в Атласе облаков (PDF).
T - Температура воздуха - температура, измеренная на высоте 2 м над землей.
Td - Температура точки росы - температура, при понижении до которой содержащийся в воздухе водяной пар достигнет насыщения.
f - Относительная влажность воздуха - влажноcть воздуха, измеренная на высоте 2 м над землей.
Te - Эффективная температура - температура, которую ощущает одетый по сезону человек в тени. Характеристика душности погоды. При расчете учитывается влияние влажности воздуха и скорости ветра на теплоощущения человека.
Tes - Эффективная температура на солнце - температура, которую ощущает человек, с поправкой на солнечный нагрев. Характеристика знойности погоды. Зависит от высоты солнца над горизонтом, облачности и скорости ветра. Ночью, в пасмурную погоду, а также при ветре 12 м/с и более поправка равна нулю.
P - Атмосферное давление - приведенное к уровню моря атмосферное давление.
Po - Атмосферное давление - измеренное на уровне метеостанции атмосферное давление.
Tmin - Минимальная температура - минимум температуры воздуха на высоте 2 м над землей.
Tmax - Максимальная температура - максимум температуры воздуха на высоте 2 м над землей.
R - Количество осадков - Количество выпавших осадков за период времени, мм. При наведении курсора мыши на число - период времени, за который выпало указанное количество осадков.
R24 - Количество осадков - Количество выпавших осадков за 24 часа, мм.
S - Снежный покров - Высота снежного покрова, см. При наведении курсора мыши на число - состояние снежного покрова и степень покрытия местности в баллах.